| time (UTC) | temp C | wind direction | speed KPH | gust KPH | rain 1hr cm | rain 24hr cm | rain mn cm | humidity % | barometer mb |
| 20260507032455 | 6 | 139 | 4.8 | 4.8 | 0.00 | 0.97 | 0.97 | 89 | 1016.8 |
| 20260507031950 | 6 | 120 | 0.0 | 4.8 | 0.00 | 0.97 | 0.97 | 88 | 1016.8 |
| 20260507031447 | 6 | 114 | 3.2 | 3.2 | 0.00 | 0.97 | 0.97 | 88 | 1016.9 |
| 20260507030944 | 6 | 98 | 0.0 | 0.0 | 0.00 | 0.97 | 0.97 | 87 | 1016.7 |
| 20260507030441 | 7 | 145 | 0.0 | 0.0 | 0.00 | 0.97 | 0.97 | 87 | 1016.7 |
| 20260507025938 | 7 | 126 | 0.0 | 3.2 | 0.00 | 0.97 | 0.97 | 86 | 1016.8 |
| 20260507025435 | 7 | 106 | 0.0 | 0.0 | 0.00 | 0.97 | 0.97 | 85 | 1016.8 |
| 20260507024933 | 7 | 106 | 0.0 | 0.0 | 0.00 | 0.97 | 0.97 | 85 | 1016.7 |
| 20260507024431 | 7 | 106 | 0.0 | 0.0 | 0.00 | 0.97 | 0.97 | 84 | 1016.8 |
| 20260507023926 | 7 | 90 | 0.0 | 0.0 | 0.00 | 0.97 | 0.97 | 84 | 1017.0 |
| 20260507023423 | 7 | 90 | 0.0 | 0.0 | 0.00 | 0.97 | 0.97 | 84 | 1017.0 |
| 20260507022920 | 7 | 90 | 0.0 | 0.0 | 0.00 | 0.97 | 0.97 | 84 | 1016.9 |
| 20260507022417 | 6 | 90 | 0.0 | 3.2 | 0.00 | 0.97 | 0.97 | 83 | 1017.1 |
| 20260507021913 | 6 | 105 | 0.0 | 0.0 | 0.00 | 0.97 | 0.97 | 83 | 1016.7 |
| 20260507021408 | 6 | 105 | 0.0 | 0.0 | 0.00 | 0.97 | 0.97 | 83 | 1017.0 |
| 20260507020906 | 6 | 105 | 0.0 | 0.0 | 0.00 | 0.97 | 0.97 | 83 | 1016.9 |
| 20260507020403 | 6 | 105 | 0.0 | 0.0 | 0.00 | 0.97 | 0.97 | 82 | 1016.9 |
| 20260507015900 | 6 | 105 | 0.0 | 0.0 | 0.00 | 0.97 | 0.97 | 82 | 1016.8 |
| 20260507015358 | 6 | 105 | 0.0 | 0.0 | 0.00 | 0.97 | 0.97 | 81 | 1016.5 |
| 20260507014855 | 7 | 105 | 0.0 | 0.0 | 0.00 | 0.97 | 0.97 | 80 | 1016.5 |
| 20260507014351 | 6 | 105 | 0.0 | 0.0 | 0.00 | 0.97 | 0.97 | 79 | 1016.4 |
| 20260507013847 | 7 | 105 | 0.0 | 0.0 | 0.00 | 0.97 | 0.97 | 78 | 1016.4 |
| 20260507013344 | 7 | 105 | 0.0 | 0.0 | 0.00 | 0.97 | 0.97 | 77 | 1016.3 |
| 20260507012842 | 7 | 105 | 0.0 | 0.0 | 0.00 | 0.97 | 0.97 | 77 | 1016.4 |
| 20260507012338 | 7 | 105 | 0.0 | 0.0 | 0.00 | 0.97 | 0.97 | 76 | 1016.2 |
| 20260507011835 | 7 | 105 | 0.0 | 0.0 | 0.00 | 0.97 | 0.97 | 74 | 1016.5 |
| 20260507011332 | 8 | 105 | 0.0 | 0.0 | 0.00 | 0.97 | 0.97 | 72 | 1016.2 |
| 20260507010826 | 8 | 106 | 0.0 | 3.2 | 0.00 | 0.97 | 0.97 | 70 | 1016.3 |
| 20260507010321 | 8 | 0 | 0.0 | 0.0 | 0.00 | 0.97 | 0.97 | 70 | 1016.4 |
| 20260507005819 | 10 | 0 | 0.0 | 0.0 | 0.00 | 0.97 | 0.97 | 69 | 1016.2 |
| 20260507005316 | 10 | 0 | 0.0 | 0.0 | 0.00 | 0.97 | 0.97 | 67 | 1016.2 |
| 20260507004812 | 10 | 0 | 0.0 | 0.0 | 0.00 | 0.97 | 0.97 | 66 | 1016.2 |
| 20260507004310 | 11 | 0 | 0.0 | 0.0 | 0.00 | 0.97 | 0.97 | 65 | 1016.2 |
| 20260507003807 | 11 | 286 | 0.0 | 4.8 | 0.00 | 0.97 | 0.97 | 65 | 1016.1 |
| 20260507003302 | 11 | 7 | 0.0 | 3.2 | 0.00 | 0.97 | 0.97 | 64 | 1016.0 |
| 20260507002757 | 11 | 23 | 0.0 | 3.2 | 0.00 | 0.97 | 0.97 | 64 | 1015.9 |
| 20260507002254 | 11 | 352 | 0.0 | 4.8 | 0.00 | 0.97 | 0.97 | 63 | 1015.9 |
| 20260507001751 | 11 | 270 | 0.0 | 4.8 | 0.00 | 0.97 | 0.97 | 63 | 1015.9 |
| 20260507001248 | 11 | 352 | 0.0 | 3.2 | 0.00 | 0.97 | 0.97 | 62 | 1015.9 |
| 20260507000744 | 12 | 286 | 0.0 | 6.4 | 0.00 | 0.97 | 0.97 | 61 | 1015.7 |
| 20260507000240 | 12 | 340 | 3.2 | 8.0 | 0.00 | 0.97 | 0.97 | 61 | 1015.7 |
| 20260506235737 | 12 | 300 | 0.0 | 6.4 | 0.00 | 0.97 | 0.97 | 60 | 1015.9 |
| 20260506235232 | 12 | 330 | 4.8 | 8.0 | 0.00 | 0.97 | 0.97 | 60 | 1015.7 |
| 20260506234730 | 12 | 301 | 4.8 | 8.0 | 0.00 | 0.97 | 0.97 | 59 | 1015.8 |
| 20260506234227 | 12 | 318 | 6.4 | 9.7 | 0.00 | 0.97 | 0.97 | 59 | 1015.7 |
| 20260506233724 | 12 | 290 | 4.8 | 11.3 | 0.00 | 0.97 | 0.97 | 60 | 1015.6 |
| 20260506233221 | 12 | 352 | 0.0 | 6.4 | 0.00 | 0.97 | 0.97 | 60 | 1015.6 |
| 20260506232717 | 12 | 294 | 0.0 | 4.8 | 0.00 | 0.97 | 0.97 | 59 | 1015.8 |
| 20260506232212 | 12 | 294 | 4.8 | 4.8 | 0.00 | 0.97 | 0.97 | 59 | 1015.6 |
| 20260506231710 | 12 | 301 | 4.8 | 8.0 | 0.00 | 0.97 | 0.97 | 58 | 1015.6 |
| 20260506231208 | 12 | 294 | 0.0 | 4.8 | 0.00 | 0.97 | 0.97 | 60 | 1015.6 |
| 20260506230704 | 12 | 294 | 4.8 | 8.0 | 0.00 | 0.97 | 0.97 | 59 | 1015.8 |
| 20260506230201 | 12 | 0 | 3.2 | 11.3 | 0.00 | 0.97 | 0.97 | 58 | 1015.8 |
| 20260506225658 | 12 | 328 | 0.0 | 6.4 | 0.00 | 0.97 | 0.97 | 59 | 1015.8 |
| 20260506225155 | 13 | 270 | 0.0 | 4.8 | 0.00 | 0.97 | 0.97 | 58 | 1015.8 |
| 20260506224651 | 13 | 295 | 4.8 | 8.0 | 0.00 | 0.97 | 0.97 | 57 | 1015.8 |
| 20260506224148 | 13 | 289 | 0.0 | 6.4 | 0.00 | 0.97 | 0.97 | 58 | 1016.0 |
| 20260506223645 | 13 | 270 | 0.0 | 3.2 | 0.00 | 0.97 | 0.97 | 59 | 1015.9 |
| 20260506223140 | 12 | 293 | 0.0 | 6.4 | 0.00 | 0.97 | 0.97 | 56 | 1015.9 |
| 20260506222637 | 13 | 11 | 0.0 | 9.7 | 0.00 | 0.97 | 0.97 | 57 | 1015.8 |
| 20260506222133 | 13 | 352 | 0.0 | 9.7 | 0.00 | 0.97 | 0.97 | 57 | 1016.3 |
| 20260506221631 | 13 | 346 | 0.0 | 4.8 | 0.00 | 0.97 | 0.97 | 58 | 1016.1 |
| 20260506221129 | 13 | 0 | 0.0 | 11.3 | 0.00 | 0.97 | 0.97 | 56 | 1016.2 |
| 20260506220626 | 13 | 295 | 4.8 | 9.7 | 0.00 | 0.97 | 0.97 | 54 | 1016.1 |
| 20260506220121 | 13 | 306 | 3.2 | 9.7 | 0.00 | 0.97 | 0.97 | 54 | 1016.2 |
| 20260506215618 | 13 | 283 | 0.0 | 8.0 | 0.00 | 0.97 | 0.97 | 54 | 1016.0 |
| 20260506215113 | 13 | 352 | 4.8 | 14.5 | 0.00 | 0.97 | 0.97 | 55 | 1015.8 |
| 20260506214610 | 13 | 288 | 6.4 | 9.7 | 0.00 | 0.97 | 0.97 | 56 | 1015.9 |
| 20260506214108 | 13 | 303 | 8.0 | 11.3 | 0.00 | 0.97 | 0.97 | 58 | 1015.8 |
| 20260506213606 | 13 | 327 | 4.8 | 9.7 | 0.00 | 0.97 | 0.97 | 57 | 1015.9 |
| 20260506213103 | 13 | 273 | 8.0 | 8.0 | 0.00 | 0.97 | 0.97 | 58 | 1015.8 |
| 20260506212600 | 13 | 342 | 4.8 | 14.5 | 0.00 | 0.97 | 0.97 | 55 | 1015.9 |
| 20260506212054 | 13 | 293 | 0.0 | 8.0 | 0.00 | 0.97 | 0.97 | 60 | 1015.7 |
| 20260506211551 | 13 | 289 | 0.0 | 4.8 | 0.00 | 0.97 | 0.97 | 60 | 1015.6 |
| 20260506211048 | 13 | 23 | 0.0 | 8.0 | 0.00 | 0.97 | 0.97 | 61 | 1015.6 |
| 20260506210544 | 13 | 7 | 0.0 | 4.8 | 0.00 | 0.97 | 0.97 | 61 | 1015.7 |
| 20260506210041 | 13 | 74 | 0.0 | 3.2 | 0.00 | 0.97 | 0.97 | 62 | 1015.6 |
| 20260506205538 | 13 | 257 | 0.0 | 4.8 | 0.00 | 0.97 | 0.97 | 62 | 1015.7 |
| 20260506205033 | 13 | 350 | 0.0 | 11.3 | 0.00 | 0.97 | 0.97 | 61 | 1015.7 |
| 20260506204531 | 13 | 277 | 0.0 | 8.0 | 0.00 | 0.97 | 0.97 | 61 | 1015.5 |
| 20260506204028 | 13 | 35 | 3.2 | 4.8 | 0.00 | 0.97 | 0.97 | 61 | 1015.7 |
| 20260506203526 | 12 | 282 | 4.8 | 11.3 | 0.00 | 0.97 | 0.97 | 60 | 1015.6 |
| 20260506203022 | 12 | 283 | 3.2 | 11.3 | 0.00 | 0.97 | 0.97 | 59 | 1015.5 |
| 20260506202520 | 13 | 260 | 4.8 | 4.8 | 0.00 | 0.97 | 0.97 | 61 | 1015.5 |
| 20260506202016 | 13 | 303 | 4.8 | 6.4 | 0.00 | 0.97 | 0.97 | 60 | 1015.8 |
| 20260506201514 | 13 | 0 | 0.0 | 8.0 | 0.00 | 0.97 | 0.97 | 59 | 1015.8 |
| 20260506201010 | 13 | 0 | 0.0 | 6.4 | 0.00 | 0.97 | 0.97 | 59 | 1015.6 |
| 20260506200507 | 13 | 279 | 0.0 | 6.4 | 0.00 | 0.97 | 0.97 | 60 | 1015.5 |
| 20260506200004 | 13 | 14 | 3.2 | 8.0 | 0.00 | 0.97 | 0.97 | 60 | 1015.6 |
| 20260506195501 | 13 | 278 | 0.0 | 4.8 | 0.00 | 0.97 | 0.97 | 60 | 1015.2 |
| 20260506194956 | 13 | 315 | 4.8 | 9.7 | 0.00 | 0.97 | 0.97 | 59 | 1015.5 |
| 20260506194454 | 13 | 254 | 3.2 | 8.0 | 0.00 | 0.97 | 0.97 | 62 | 1015.3 |
| 20260506193950 | 12 | 286 | 3.2 | 8.0 | 0.00 | 0.97 | 0.97 | 61 | 1015.3 |
| 20260506193448 | 13 | 277 | 3.2 | 9.7 | 0.00 | 0.97 | 0.97 | 59 | 1015.5 |
| 20260506192944 | 13 | 0 | 0.0 | 4.8 | 0.00 | 0.97 | 0.97 | 61 | 1015.3 |
| 20260506192442 | 13 | 291 | 0.0 | 17.7 | 0.00 | 0.97 | 0.97 | 59 | 1015.6 |
| 20260506191938 | 13 | 270 | 4.8 | 14.5 | 0.00 | 0.97 | 0.97 | 62 | 1015.5 |
| 20260506191435 | 13 | 278 | 3.2 | 9.7 | 0.00 | 0.97 | 0.97 | 61 | 1015.6 |
| 20260506190931 | 13 | 279 | 11.3 | 12.9 | 0.00 | 0.97 | 0.97 | 60 | 1015.5 |
| 20260506190428 | 13 | 300 | 0.0 | 6.4 | 0.00 | 0.97 | 0.97 | 60 | 1015.5 |
| 20260506185925 | 13 | 278 | 8.0 | 12.9 | 0.00 | 0.97 | 0.97 | 58 | 1015.6 |
| 20260506185422 | 13 | 337 | 4.8 | 8.0 | 0.00 | 0.97 | 0.97 | 61 | 1015.7 |
| 20260506184919 | 13 | 261 | 4.8 | 8.0 | 0.00 | 0.97 | 0.97 | 60 | 1015.7 |
| 20260506184416 | 13 | 355 | 4.8 | 9.7 | 0.00 | 0.97 | 0.97 | 59 | 1015.7 |
| 20260506183913 | 13 | 324 | 4.8 | 9.7 | 0.00 | 0.97 | 0.97 | 58 | 1015.7 |
| 20260506183408 | 14 | 294 | 9.7 | 12.9 | 0.00 | 0.97 | 0.97 | 57 | 1015.5 |
| 20260506182906 | 14 | 266 | 11.3 | 11.3 | 0.00 | 0.97 | 0.97 | 59 | 1015.3 |
| 20260506182403 | 14 | 24 | 4.8 | 6.4 | 0.00 | 0.97 | 0.97 | 60 | 1015.1 |
| 20260506181900 | 13 | 293 | 8.0 | 11.3 | 0.00 | 0.97 | 0.97 | 61 | 1014.9 |
| 20260506181358 | 13 | 353 | 0.0 | 11.3 | 0.00 | 0.97 | 0.97 | 62 | 1015.0 |
| 20260506180855 | 13 | 328 | 8.0 | 8.0 | 0.00 | 0.97 | 0.97 | 63 | 1015.2 |
| 20260506180351 | 13 | 12 | 0.0 | 8.0 | 0.00 | 0.97 | 0.97 | 63 | 1015.3 |
| 20260506175848 | 13 | 340 | 8.0 | 8.0 | 0.00 | 0.97 | 0.97 | 60 | 1015.2 |
| 20260506175344 | 13 | 290 | 0.0 | 4.8 | 0.00 | 0.97 | 0.97 | 61 | 1015.6 |
| 20260506174841 | 13 | 285 | 3.2 | 8.0 | 0.00 | 0.97 | 0.97 | 61 | 1015.8 |
| 20260506174339 | 13 | 297 | 0.0 | 8.0 | 0.00 | 0.97 | 0.97 | 59 | 1015.6 |
| 20260506173837 | 13 | 270 | 3.2 | 6.4 | 0.00 | 0.97 | 0.97 | 61 | 1015.7 |
| 20260506173333 | 13 | 305 | 9.7 | 9.7 | 0.00 | 0.97 | 0.97 | 61 | 1015.8 |
| 20260506172830 | 13 | 279 | 4.8 | 9.7 | 0.00 | 0.97 | 0.97 | 61 | 1015.9 |
| 20260506172327 | 13 | 154 | 3.2 | 4.8 | 0.00 | 0.97 | 0.97 | 62 | 1015.5 |
| 20260506171824 | 13 | 172 | 0.0 | 9.7 | 0.00 | 0.97 | 0.97 | 62 | 1015.7 |
| 20260506171321 | 13 | 270 | 4.8 | 11.3 | 0.00 | 0.97 | 0.97 | 59 | 1015.7 |
| 20260506170819 | 14 | 253 | 0.0 | 8.0 | 0.00 | 0.97 | 0.97 | 59 | 1015.7 |
| 20260506170315 | 14 | 0 | 0.0 | 8.0 | 0.00 | 0.97 | 0.97 | 60 | 1015.7 |
| 20260506165814 | 14 | 75 | 3.2 | 8.0 | 0.00 | 0.97 | 0.97 | 60 | 1015.6 |
| 20260506165311 | 13 | 301 | 9.7 | 19.3 | 0.00 | 0.97 | 0.97 | 60 | 1015.5 |
| 20260506164807 | 13 | 21 | 0.0 | 11.3 | 0.00 | 0.97 | 0.97 | 63 | 1015.5 |
| 20260506164304 | 13 | 294 | 4.8 | 11.3 | 0.00 | 0.97 | 0.97 | 61 | 1015.6 |
| 20260506163801 | 13 | 279 | 0.0 | 8.0 | 0.00 | 0.97 | 0.97 | 62 | 1015.3 |
| 20260506163256 | 14 | 346 | 8.0 | 9.7 | 0.00 | 0.97 | 0.97 | 63 | 1015.2 |
| 20260506162752 | 13 | 41 | 4.8 | 8.0 | 0.00 | 0.97 | 0.97 | 63 | 1015.7 |
| 20260506162250 | 13 | 12 | 3.2 | 14.5 | 0.00 | 0.97 | 0.97 | 61 | 1015.6 |
| 20260506161747 | 13 | 348 | 3.2 | 11.3 | 0.00 | 0.97 | 0.97 | 63 | 1015.7 |
| 20260506161244 | 13 | 32 | 0.0 | 12.9 | 0.00 | 0.97 | 0.97 | 63 | 1015.7 |
| 20260506160742 | 13 | 313 | 6.4 | 9.7 | 0.00 | 0.97 | 0.97 | 66 | 1016.0 |
| 20260506160238 | 13 | 297 | 0.0 | 11.3 | 0.00 | 0.97 | 0.97 | 66 | 1015.9 |
| 20260506155737 | 13 | 19 | 4.8 | 29.0 | 0.00 | 0.97 | 0.97 | 68 | 1015.3 |
| 20260506155233 | 12 | 337 | 0.0 | 9.7 | 0.00 | 0.97 | 0.97 | 69 | 1015.5 |
| 20260506153341 | 12 | 314 | 11.3 | 14.5 | 0.00 | 0.97 | 0.97 | 68 | 1015.5 |
| 20260506152837 | 12 | 354 | 3.2 | 14.5 | 0.00 | 0.97 | 0.97 | 71 | 1015.5 |
| 20260506152335 | 12 | 10 | 6.4 | 11.3 | 0.00 | 0.97 | 0.97 | 72 | 1015.6 |
| 20260506151833 | 12 | 285 | 4.8 | 17.7 | 0.00 | 0.97 | 0.97 | 69 | 1015.2 |
| 20260506151329 | 12 | 321 | 8.0 | 9.7 | 0.00 | 0.97 | 0.97 | 71 | 1015.2 |
| 20260506150827 | 12 | 0 | 0.0 | 11.3 | 0.00 | 0.97 | 0.97 | 74 | 1014.8 |
| 20260506150324 | 12 | 297 | 6.4 | 11.3 | 0.00 | 0.97 | 0.97 | 73 | 1014.6 |
| 20260506145820 | 12 | 0 | 4.8 | 8.0 | 0.00 | 0.97 | 0.97 | 74 | 1014.7 |
| 20260506145317 | 12 | 7 | 8.0 | 9.7 | 0.00 | 0.97 | 0.97 | 78 | 1014.5 |
| 20260506144815 | 11 | 356 | 8.0 | 9.7 | 0.00 | 0.97 | 0.97 | 78 | 1014.5 |
| 20260506144311 | 11 | 337 | 4.8 | 14.5 | 0.00 | 0.97 | 0.97 | 75 | 1014.5 |
| 20260506143809 | 11 | 90 | 4.8 | 9.7 | 0.00 | 0.97 | 0.97 | 78 | 1014.3 |
| 20260506143306 | 11 | 356 | 4.8 | 12.9 | 0.00 | 0.97 | 0.97 | 77 | 1014.5 |
| 20260506142804 | 11 | 50 | 9.7 | 11.3 | 0.00 | 0.97 | 0.97 | 79 | 1014.7 |
| 20260506142305 | 10 | 331 | 0.0 | 11.3 | 0.00 | 0.97 | 0.97 | 78 | 1014.5 |
| 20260506141800 | 10 | 270 | 8.0 | 9.7 | 0.00 | 0.97 | 0.97 | 79 | 1014.6 |
| 20260506141258 | 10 | 293 | 8.0 | 14.5 | 0.00 | 0.97 | 0.97 | 79 | 1014.6 |
| 20260506140755 | 10 | 307 | 6.4 | 9.7 | 0.00 | 0.97 | 0.97 | 81 | 1014.8 |
| 20260506140252 | 9 | 286 | 8.0 | 19.3 | 0.00 | 0.97 | 0.97 | 81 | 1014.4 |
| 20260506135749 | 9 | 308 | 12.9 | 14.5 | 0.00 | 0.97 | 0.97 | 82 | 1014.5 |
| 20260506135245 | 9 | 330 | 4.8 | 12.9 | 0.00 | 0.97 | 0.97 | 85 | 1014.5 |
| 20260506134742 | 8 | 289 | 4.8 | 17.7 | 0.00 | 0.97 | 0.97 | 84 | 1014.5 |
| 20260506134238 | 8 | 276 | 14.5 | 14.5 | 0.00 | 0.97 | 0.97 | 88 | 1014.6 |
| 20260506133736 | 8 | 287 | 6.4 | 11.3 | 0.00 | 0.97 | 0.97 | 90 | 1014.4 |
| 20260506133232 | 8 | 291 | 3.2 | 8.0 | 0.00 | 0.97 | 0.97 | 91 | 1014.2 |
| 20260506132729 | 7 | 292 | 4.8 | 9.7 | 0.00 | 0.97 | 0.97 | 91 | 1014.1 |
| 20260506132226 | 7 | 299 | 6.4 | 9.7 | 0.00 | 0.97 | 0.97 | 92 | 1014.2 |
| 20260506131724 | 7 | 319 | 4.8 | 9.7 | 0.00 | 0.97 | 0.97 | 93 | 1014.1 |
| 20260506131220 | 7 | 295 | 11.3 | 16.1 | 0.00 | 0.97 | 0.97 | 94 | 1014.1 |
| 20260506130717 | 7 | 324 | 4.8 | 12.9 | 0.00 | 0.97 | 0.97 | 95 | 1014.0 |
| 20260506130214 | 7 | 34 | 4.8 | 11.3 | 0.00 | 0.97 | 0.97 | 96 | 1014.0 |
| 20260506125712 | 7 | 334 | 3.2 | 8.0 | 0.00 | 0.97 | 0.97 | 98 | 1013.9 |
| 20260506125210 | 7 | 345 | 0.0 | 4.8 | 0.00 | 0.97 | 0.97 | 98 | 1014.1 |
| 20260506124707 | 6 | 45 | 4.8 | 8.0 | 0.00 | 0.97 | 0.97 | 99 | 1014.2 |
| 20260506124206 | 6 | 285 | 8.0 | 8.0 | 0.00 | 0.97 | 0.97 | 99 | 1014.0 |
| 20260506123702 | 6 | 300 | 4.8 | 6.4 | 0.00 | 0.97 | 0.97 | 99 | 1013.8 |
| 20260506123201 | 7 | 33 | 0.0 | 4.8 | 0.00 | 0.97 | 0.97 | 99 | 1013.6 |
| 20260506122657 | 6 | 7 | 3.2 | 4.8 | 0.00 | 0.97 | 0.97 | 99 | 1013.7 |
| 20260506122155 | 6 | 20 | 0.0 | 4.8 | 0.00 | 0.97 | 0.97 | 99 | 1013.4 |
| 20260506121653 | 6 | 346 | 3.2 | 4.8 | 0.00 | 0.97 | 0.97 | 99 | 1013.5 |
| 20260506121149 | 6 | 6 | 0.0 | 8.0 | 0.00 | 0.97 | 0.97 | 99 | 1013.4 |
| 20260506120647 | 6 | 12 | 6.4 | 6.4 | 0.00 | 0.97 | 0.97 | 99 | 1013.6 |
| 20260506120144 | 6 | 7 | 3.2 | 8.0 | 0.00 | 0.97 | 0.97 | 99 | 1013.5 |
| 20260506115642 | 6 | 18 | 4.8 | 4.8 | 0.00 | 0.97 | 0.97 | 99 | 1013.0 |
| 20260506115140 | 6 | 23 | 0.0 | 6.4 | 0.00 | 0.97 | 0.97 | 99 | 1012.8 |
| 20260506114637 | 6 | 345 | 0.0 | 6.4 | 0.00 | 0.97 | 0.97 | 99 | 1012.7 |
| 20260506114135 | 6 | 331 | 3.2 | 6.4 | 0.00 | 0.97 | 0.97 | 99 | 1012.3 |
| 20260506113633 | 6 | 40 | 0.0 | 6.4 | 0.00 | 0.97 | 0.97 | 99 | 1012.3 |
| 20260506113130 | 6 | 20 | 3.2 | 8.0 | 0.00 | 0.97 | 0.97 | 99 | 1012.8 |
| 20260506112626 | 6 | 37 | 4.8 | 4.8 | 0.00 | 0.97 | 0.97 | 99 | 1012.2 |
| 20260506112124 | 6 | 0 | 3.2 | 4.8 | 0.00 | 0.97 | 0.97 | 99 | 1012.2 |
| 20260506111622 | 6 | 18 | 3.2 | 4.8 | 0.00 | 0.97 | 0.97 | 99 | 1012.5 |
| 20260506111119 | 6 | 0 | 3.2 | 6.4 | 0.00 | 0.97 | 0.97 | 99 | 1012.6 |
| 20260506110616 | 6 | 12 | 3.2 | 6.4 | 0.00 | 0.97 | 0.97 | 99 | 1012.4 |
| 20260506110114 | 6 | 0 | 3.2 | 4.8 | 0.00 | 0.97 | 0.97 | 99 | 1012.3 |
| 20260506105610 | 6 | 301 | 4.8 | 8.0 | 0.00 | 0.97 | 0.97 | 99 | 1012.1 |
| 20260506105107 | 6 | 29 | 3.2 | 8.0 | 0.00 | 0.97 | 0.97 | 99 | 1012.2 |
| 20260506104605 | 6 | 15 | 0.0 | 8.0 | 0.00 | 0.97 | 0.97 | 99 | 1011.7 |
| 20260506104102 | 6 | 19 | 0.0 | 6.4 | 0.00 | 0.97 | 0.97 | 99 | 1011.5 |
| 20260506103600 | 5 | 47 | 8.0 | 9.7 | 0.00 | 0.97 | 0.97 | 99 | 1011.5 |
| 20260506103056 | 5 | 29 | 0.0 | 6.4 | 0.00 | 0.97 | 0.97 | 99 | 1011.3 |
| 20260506102555 | 6 | 0 | 3.2 | 6.4 | 0.00 | 0.97 | 0.97 | 99 | 1011.5 |
| 20260506102052 | 6 | 16 | 4.8 | 4.8 | 0.00 | 0.97 | 0.97 | 99 | 1011.5 |
| 20260506101548 | 5 | 54 | 3.2 | 8.0 | 0.00 | 0.97 | 0.97 | 99 | 1011.7 |
| 20260506101046 | 5 | 24 | 4.8 | 6.4 | 0.00 | 0.97 | 0.97 | 99 | 1011.6 |
| 20260506100544 | 5 | 35 | 3.2 | 4.8 | 0.00 | 0.97 | 0.97 | 99 | 1011.5 |
| 20260506100041 | 6 | 6 | 6.4 | 6.4 | 0.00 | 0.97 | 0.97 | 99 | 1011.3 |
| 20260506095540 | 5 | 327 | 4.8 | 8.0 | 0.00 | 0.97 | 0.97 | 99 | 1011.4 |
| 20260506095036 | 5 | 348 | 0.0 | 11.3 | 0.00 | 0.97 | 0.97 | 99 | 1011.4 |
| 20260506094534 | 5 | 5 | 3.2 | 11.3 | 0.00 | 0.97 | 0.97 | 99 | 1011.5 |
| 20260506094032 | 5 | 29 | 0.0 | 8.0 | 0.00 | 0.97 | 0.97 | 99 | 1011.3 |
| 20260506093530 | 5 | 341 | 4.8 | 8.0 | 0.00 | 0.97 | 0.97 | 99 | 1011.0 |
| 20260506093027 | 5 | 66 | 0.0 | 6.4 | 0.00 | 0.97 | 0.97 | 99 | 1010.9 |
| 20260506092525 | 5 | 29 | 0.0 | 9.7 | 0.00 | 0.97 | 0.97 | 99 | 1010.9 |
| 20260506092021 | 5 | 74 | 0.0 | 9.7 | 0.00 | 0.97 | 0.97 | 99 | 1010.4 |
| 20260506091520 | 5 | 26 | 4.8 | 8.0 | 0.00 | 0.97 | 0.97 | 99 | 1010.9 |
| 20260506091016 | 5 | 20 | 0.0 | 8.0 | 0.00 | 0.97 | 0.97 | 99 | 1010.8 |
| 20260506090514 | 5 | 334 | 3.2 | 6.4 | 0.00 | 0.97 | 0.97 | 99 | 1010.8 |
| 20260506090010 | 5 | 23 | 3.2 | 8.0 | 0.00 | 0.97 | 0.97 | 99 | 1010.5 |
| 20260506085507 | 5 | 55 | 4.8 | 11.3 | 0.00 | 0.97 | 0.97 | 99 | 1010.9 |
| 20260506085004 | 5 | 49 | 3.2 | 8.0 | 0.00 | 0.97 | 0.97 | 99 | 1010.9 |
| 20260506084500 | 5 | 30 | 0.0 | 8.0 | 0.00 | 0.97 | 0.97 | 99 | 1011.1 |
| 20260506083956 | 5 | 23 | 0.0 | 9.7 | 0.00 | 0.97 | 0.97 | 99 | 1010.6 |
| 20260506083454 | 5 | 24 | 4.8 | 4.8 | 0.00 | 0.97 | 0.97 | 99 | 1010.2 |
| 20260506082951 | 5 | 48 | 4.8 | 6.4 | 0.00 | 0.97 | 0.97 | 99 | 1010.3 |
| 20260506082448 | 5 | 78 | 3.2 | 9.7 | 0.05 | 0.97 | 0.97 | 99 | 1010.3 |
| 20260506081943 | 5 | 63 | 6.4 | 11.3 | 0.05 | 0.97 | 0.97 | 99 | 1010.5 |
| 20260506081442 | 6 | 21 | 4.8 | 9.7 | 0.00 | 0.94 | 0.94 | 99 | 1010.7 |
| 20260506080939 | 6 | 29 | 3.2 | 8.0 | 0.05 | 0.94 | 0.94 | 99 | 1010.9 |
| 20260506080436 | 6 | 23 | 3.2 | 4.8 | 0.05 | 0.94 | 0.94 | 99 | 1010.6 |
| 20260506073420 | 5 | 26 | 3.2 | 4.8 | 0.23 | 0.91 | 0.91 | 99 | 1010.6 |
| 20260506072917 | 6 | 0 | 0.0 | 11.3 | 0.23 | 0.89 | 0.89 | 99 | 1010.8 |
| 20260506072414 | 5 | 328 | 3.2 | 6.4 | 0.23 | 0.86 | 0.86 | 99 | 1010.4 |
| 20260506071912 | 6 | 334 | 0.0 | 8.0 | 0.13 | 0.86 | 0.86 | 99 | 1010.7 |
| 20260506071410 | 6 | 15 | 4.8 | 9.7 | 0.00 | 0.84 | 0.84 | 99 | 1010.6 |
| 20260506070906 | 6 | 356 | 4.8 | 11.3 | 0.00 | 0.84 | 0.84 | 99 | 1010.6 |
| 20260506070403 | 6 | 26 | 6.4 | 11.3 | 0.00 | 0.84 | 0.84 | 99 | 1010.6 |
| 20260506062341 | 6 | 331 | 0.0 | 9.7 | 0.13 | 0.81 | 0.81 | 99 | 1010.8 |
| 20260506061836 | 6 | 7 | 0.0 | 9.7 | 0.13 | 0.81 | 0.81 | 99 | 1010.6 |
| 20260506061333 | 6 | 20 | 3.2 | 11.3 | 0.18 | 0.79 | 0.79 | 99 | 1010.6 |
| 20260506060832 | 7 | 26 | 3.2 | 11.3 | 0.23 | 0.79 | 0.79 | 99 | 1010.6 |
| 20260506060329 | 7 | 18 | 4.8 | 11.3 | 0.13 | 0.74 | 0.74 | 99 | 1010.5 |
| 20260506051301 | 7 | 6 | 0.0 | 8.0 | 0.53 | 0.53 | 0.53 | 99 | 1010.9 |
| 20260506050759 | 7 | 47 | 6.4 | 6.4 | 0.61 | 0.48 | 0.48 | 99 | 1011.0 |
| 20260506050256 | 7 | 270 | 6.4 | 11.3 | 0.53 | 0.43 | 0.43 | 99 | 1011.2 |
| 20260506044747 | 7 | 344 | 4.8 | 14.5 | 0.79 | 0.30 | 0.30 | 99 | 1011.0 |
| 20260506044244 | 7 | 35 | 3.2 | 8.0 | 0.61 | 0.23 | 0.23 | 99 | 1010.6 |
| 20260506043741 | 7 | 354 | 3.2 | 9.7 | 0.36 | 0.15 | 0.15 | 99 | 1010.3 |
| 20260506043238 | 7 | 0 | 3.2 | 8.0 | 0.23 | 0.13 | 0.13 | 99 | 1010.1 |
| 20260506042737 | 7 | 353 | 0.0 | 4.8 | 0.13 | 0.10 | 0.10 | 99 | 1010.3 |
| 20260506042235 | 7 | 73 | 4.8 | 4.8 | 0.13 | 0.08 | 0.08 | 99 | 1010.1 |
| 20260506041733 | 7 | 318 | 6.4 | 9.7 | 0.13 | 0.08 | 0.08 | 99 | 1009.8 |
| 20260506041230 | 7 | 0 | 4.8 | 8.0 | 0.23 | 0.05 | 0.05 | 99 | 1010.3 |
| 20260506040728 | 7 | 297 | 3.2 | 8.0 | 0.36 | 0.05 | 0.05 | 99 | 1010.4 |
| 20260506040224 | 7 | 297 | 0.0 | 9.7 | 0.53 | 0.03 | 0.03 | 99 | 1010.6 |
| 20260506035721 | 7 | 80 | 6.4 | 8.0 | 0.84 | 2.67 | 2.67 | 99 | 1010.7 |
| 20260506035218 | 8 | 290 | 4.8 | 11.3 | 0.66 | 2.59 | 2.59 | 99 | 1010.6 |
| 20260506034715 | 8 | 0 | 4.8 | 8.0 | 0.18 | 2.49 | 2.49 | 99 | 1010.9 |
| 20260506034212 | 8 | 303 | 3.2 | 8.0 | 0.18 | 2.49 | 2.49 | 99 | 1010.8 |
| 20260506033710 | 8 | 358 | 9.7 | 9.7 | 0.05 | 2.46 | 2.46 | 99 | 1010.2 |
| 20260506033206 | 8 | 14 | 4.8 | 8.0 | 0.00 | 2.44 | 2.44 | 99 | 1010.1 |